User: anonymous   Login
Location: Dentlein
(49.1477°N, 10.4231°E)
Time: 15:43:16
(UTC+00:00)
Language:

Cosmos 1954 Rocket - Orbit

View from above orbital plane
View from above orbital plane
View from above satellite
View from above satellite

Ground track
Ground track

The orbit data is extracted from the following two-line orbital elements,

1 19257U 88053B   24206.77382263  .00000690  00000-0  23507-3 0  9995
2 19257  74.0481 124.8639 0019109  93.6122 296.9348 14.38235511891334
Epoch (UTC): 24 July 2024 18:34:18
Eccentricity: 0.0019109
inclination: 74.0481°
perigee height: 750 km
apogee height: 778 km
right ascension of ascending node: 124.8639°
argument of perigee: 93.6122°
revolutions per day: 14.38235511
mean anomaly at epoch: 296.9348°
orbit number at epoch: 89133

The dashed part of the orbit path shows where the satellite is in the earth's shadow,  

DLR